TimeMDT,TemperatureF,Dew PointF,Humidity,Sea Level PressureIn,VisibilityMPH,Wind Direction,Wind SpeedMPH,Gust SpeedMPH,PrecipitationIn,Events,Conditions,WindDirDegrees,DateUTC
12:53 AM,34.0,30.9,89,30.07,10.0,West,3.5,-,N/A,,Clear,270,2012-11-01 06:53:00
1:53 AM,35.1,32.0,89,30.07,10.0,Calm,Calm,-,N/A,,Clear,0,2012-11-01 07:53:00
2:53 AM,30.0,28.0,92,30.06,10.0,West,3.5,-,N/A,,Clear,260,2012-11-01 08:53:00
3:53 AM,30.0,28.0,92,30.03,10.0,Calm,Calm,-,N/A,,Clear,0,2012-11-01 09:53:00
4:53 AM,30.0,28.0,92,30.03,10.0,Calm,Calm,-,N/A,,Clear,0,2012-11-01 10:53:00
5:53 AM,27.0,25.0,92,30.03,10.0,WSW,5.8,-,N/A,,Clear,250,2012-11-01 11:53:00
6:53 AM,27.0,25.0,92,30.02,10.0,SSW,4.6,-,N/A,,Clear,210,2012-11-01 12:53:00
7:53 AM,27.0,26.1,96,30.04,10.0,West,4.6,-,N/A,,Clear,260,2012-11-01 13:53:00
8:53 AM,33.1,32.0,96,30.04,8.0,SW,3.5,-,N/A,,Clear,220,2012-11-01 14:53:00
9:53 AM,37.0,34.0,89,30.04,9.0,Calm,Calm,-,N/A,,Clear,0,2012-11-01 15:53:00
10:53 AM,39.9,35.1,83,30.02,10.0,Calm,Calm,-,N/A,,Clear,0,2012-11-01 16:53:00
11:53 AM,44.1,37.0,76,29.98,10.0,Calm,Calm,-,N/A,,Clear,0,2012-11-01 17:53:00
12:53 PM,50.0,37.9,63,29.94,10.0,Calm,Calm,-,N/A,,Clear,0,2012-11-01 18:53:00
1:53 PM,54.0,37.9,55,29.89,10.0,Calm,Calm,-,N/A,,Clear,0,2012-11-01 19:53:00
2:53 PM,55.9,37.9,51,29.88,10.0,NE,3.5,-,N/A,,Clear,40,2012-11-01 20:53:00
3:53 PM,57.9,39.0,49,29.86,10.0,East,3.5,-,N/A,,Clear,90,2012-11-01 21:53:00
4:53 PM,57.0,39.0,51,29.85,10.0,Calm,Calm,-,N/A,,Clear,0,2012-11-01 22:53:00
5:53 PM,51.1,37.9,61,29.87,10.0,Calm,Calm,-,N/A,,Clear,0,2012-11-01 23:53:00
6:53 PM,48.0,37.9,68,29.87,10.0,Calm,Calm,-,N/A,,Clear,0,2012-11-02 00:53:00
7:53 PM,43.0,36.0,76,29.89,10.0,Calm,Calm,-,N/A,,Clear,0,2012-11-02 01:53:00
8:53 PM,41.0,36.0,82,29.88,10.0,Calm,Calm,-,N/A,,Clear,0,2012-11-02 02:53:00
9:53 PM,39.9,36.0,86,29.88,10.0,Calm,Calm,-,N/A,,Clear,0,2012-11-02 03:53:00
10:53 PM,39.0,36.0,89,29.88,10.0,Calm,Calm,-,N/A,,Clear,0,2012-11-02 04:53:00
11:53 PM,37.9,36.0,93,29.88,9.0,East,3.5,-,N/A,,Clear,80,2012-11-02 05:53:00